When you browse on this site, cookies collect data to enhance your experience and personalize the content and advertising you see.
Visit our Privacy Policy to learn more. By continuing to use the site, you agree to this use of cookies and data.
  • En España
  • Lista de países
  • Para 7 días
  • Temperatura del agua
  • Mapa Satelital
  • El tiempo en el mapa
  • Informadores
  • user-avatar
    Iniciar sesión

    Tiempo cada hora Lezhe

    Hoy, 24 Julio, Miércoles

    Tiempo Temperatura Precipitaciones Viento Presión Humedad
    00:00 +24°C° 0 mm 3 mps 737 mmHg 60%
    01:00 +22°C° 0 mm 3 mps 737 mmHg 62%
    02:00 +22°C° 0 mm 3 mps 737 mmHg 65%
    03:00 +21°C° 0 mm 3 mps 737 mmHg 67%
    04:00 +21°C° 0 mm 4 mps 737 mmHg 69%
    05:00 +23°C° 0 mm 4 mps 737 mmHg 64%
    06:00 +25°C° 0 mm 4 mps 737 mmHg 59%
    07:00 +27°C° 0 mm 4 mps 737 mmHg 54%
    08:00 +28°C° 0 mm 4 mps 737 mmHg 49%
    09:00 +30°C° 0 mm 4 mps 737 mmHg 44%
    10:00 +32°C° 0 mm 4 mps 737 mmHg 40%
    11:00 +33°C° 0 mm 5 mps 737 mmHg 39%
    12:00 +33°C° 0 mm 5 mps 737 mmHg 38%
    13:00 +34°C° 0 mm 5 mps 737 mmHg 37%
    14:00 +33°C° 0 mm 4 mps 737 mmHg 37%
    15:00 +33°C° 0 mm 4 mps 736 mmHg 38%
    16:00 +33°C° 0 mm 4 mps 736 mmHg 39%
    17:00 +30°C° 0 mm 4 mps 736 mmHg 44%
    18:00 +28°C° 0 mm 3 mps 737 mmHg 49%
    19:00 +26°C° 0 mm 3 mps 737 mmHg 54%
    20:00 +26°C° 0 mm 3 mps 737 mmHg 55%
    21:00 +25°C° 0 mm 4 mps 737 mmHg 57%
    22:00 +23°C° 0 mm 4 mps 738 mmHg 58%
    23:00 +22°C° 0 mm 4 mps 738 mmHg 60%

    Mañana, 25 Julio, Jueves

    Tiempo Temperatura Precipitaciones Viento Presión Humedad
    00:00 +21°C° 0 mm 4 mps 738 mmHg 62%
    01:00 +21°C° 0 mm 4 mps 737 mmHg 64%
    02:00 +20°C° 0 mm 4 mps 738 mmHg 65%
    03:00 +20°C° 0 mm 4 mps 738 mmHg 66%
    04:00 +20°C° 0 mm 4 mps 738 mmHg 68%
    05:00 +21°C° 0 mm 4 mps 738 mmHg 63%
    06:00 +23°C° 0 mm 4 mps 738 mmHg 58%
    07:00 +26°C° 0 mm 4 mps 738 mmHg 54%
    08:00 +28°C° 0 mm 3 mps 739 mmHg 48%
    09:00 +30°C° 0 mm 3 mps 739 mmHg 42%
    10:00 +33°C° 0 mm 3 mps 739 mmHg 36%
    11:00 +34°C° 0 mm 3 mps 739 mmHg 34%
    12:00 +35°C° 0 mm 3 mps 738 mmHg 32%
    13:00 +36°C° 0 mm 3 mps 738 mmHg 31%
    14:00 +35°C° 0 mm 3 mps 738 mmHg 33%
    15:00 +34°C° 0 mm 3 mps 738 mmHg 35%
    16:00 +33°C° 0 mm 3 mps 737 mmHg 37%
    17:00 +30°C° 0 mm 2 mps 737 mmHg 43%
    18:00 +28°C° 0 mm 1 mps 737 mmHg 49%
    19:00 +26°C° 0 mm 1 mps 737 mmHg 55%
    20:00 +25°C° 0 mm 1 mps 738 mmHg 57%
    21:00 +25°C° 0 mm 1 mps 738 mmHg 58%
    22:00 +24°C° 0 mm 1 mps 738 mmHg 60%
    23:00 +24°C° 0 mm 1 mps 738 mmHg 62%

    Pasado mañana, 26 Julio, Viernes

    Tiempo Temperatura Precipitaciones Viento Presión Humedad
    00:00 +24°C° 0 mm 1 mps 738 mmHg 63%
    01:00 +23°C° 0 mm 1 mps 737 mmHg 65%
    02:00 +23°C° 0 mm 1 mps 737 mmHg 66%
    03:00 +23°C° 0 mm 1 mps 737 mmHg 67%
    04:00 +22°C° 0 mm 1 mps 737 mmHg 68%
    05:00 +24°C° 0 mm 1 mps 737 mmHg 63%
    06:00 +26°C° 0 mm 1 mps 736 mmHg 58%
    07:00 +28°C° 0 mm 1 mps 736 mmHg 53%
    08:00 +30°C° 0 mm 1 mps 736 mmHg 48%
    09:00 +31°C° 0 mm 2 mps 736 mmHg 44%
    10:00 +34°C° 0 mm 2 mps 736 mmHg 39%
    11:00 +34°C° 0 mm 3 mps 736 mmHg 38%
    12:00 +34°C° 0 mm 3 mps 735 mmHg 37%
    13:00 +35°C° 0 mm 4 mps 735 mmHg 36%
    14:00 +34°C° 0 mm 3 mps 735 mmHg 37%
    15:00 +34°C° 0 mm 3 mps 734 mmHg 38%
    16:00 +33°C° 0 mm 3 mps 734 mmHg 38%
    17:00 +30°C° 0 mm 2 mps 734 mmHg 45%
    18:00 +27°C° 0 mm 1 mps 734 mmHg 52%
    19:00 +23°C° 0 mm 0 mps 733 mmHg 59%
    20:00 +23°C° 0 mm 0 mps 733 mmHg 60%
    21:00 +24°C° 0 mm 1 mps 734 mmHg 60%
    22:00 +24°C° 0 mm 1 mps 734 mmHg 61%
    23:00 +23°C° 0 mm 1 mps 733 mmHg 62%

    27 Julio, Sábado

    Tiempo Temperatura Precipitaciones Viento Presión Humedad
    00:00 +23°C° 0 mm 1 mps 733 mmHg 62%
    01:00 +20°C° 0 mm 0 mps 733 mmHg 63%
    02:00 +22°C° 0 mm 1 mps 733 mmHg 64%
    03:00 +22°C° 0 mm 1 mps 732 mmHg 65%
    04:00 +21°C° 0 mm 1 mps 732 mmHg 66%
    05:00 +23°C° 0 mm 1 mps 732 mmHg 61%
    06:00 +25°C° 0 mm 1 mps 732 mmHg 56%
    07:00 +27°C° 0 mm 1 mps 732 mmHg 50%
    08:00 +29°C° 0 mm 1 mps 732 mmHg 46%
    09:00 +31°C° 0 mm 2 mps 732 mmHg 41%
    10:00 +32°C° 0 mm 2 mps 732 mmHg 36%
    11:00 +34°C° 0 mm 3 mps 732 mmHg 36%
    12:00 +34°C° 0 mm 3 mps 731 mmHg 36%
    13:00 +34°C° 0 mm 3 mps 731 mmHg 36%
    14:00 +34°C° 0 mm 3 mps 731 mmHg 37%
    15:00 +33°C° 0 mm 3 mps 730 mmHg 38%
    16:00 +32°C° 0 mm 2 mps 730 mmHg 40%
    17:00 +30°C° 0 mm 2 mps 730 mmHg 47%
    18:00 +27°C° 0 mm 1 mps 730 mmHg 54%
    19:00 +25°C° 0 mm 1 mps 730 mmHg 61%
    20:00 +24°C° 0 mm 1 mps 730 mmHg 64%
    21:00 +22°C° 0 mm 0 mps 730 mmHg 66%
    22:00 +21°C° 0 mm 0 mps 731 mmHg 69%
    23:00 +23°C° 0.3 mm 1 mps 730 mmHg 71%

    28 Julio, Domingo

    Tiempo Temperatura Precipitaciones Viento Presión Humedad
    00:00 +22°C° 0.3 mm 1 mps 730 mmHg 72%
    01:00 +22°C° 0.3 mm 1 mps 730 mmHg 74%
    02:00 +22°C° 1.3 mm 1 mps 730 mmHg 77%
    03:00 +20°C° 1.3 mm 2 mps 730 mmHg 80%
    04:00 +20°C° 1.3 mm 2 mps 729 mmHg 83%
    05:00 +21°C° 1 mm 2 mps 729 mmHg 80%
    06:00 +23°C° 1 mm 2 mps 730 mmHg 76%
    07:00 +25°C° 1 mm 2 mps 730 mmHg 72%
    08:00 +27°C° 0 mm 2 mps 730 mmHg 61%
    09:00 +29°C° 0 mm 2 mps 730 mmHg 50%
    10:00 +32°C° 0 mm 2 mps 730 mmHg 39%
    11:00 +32°C° 0 mm 2 mps 729 mmHg 37%
    12:00 +34°C° 0 mm 2 mps 729 mmHg 35%
    13:00 +35°C° 0 mm 3 mps 729 mmHg 34%
    14:00 +32°C° 0 mm 2 mps 729 mmHg 41%
    15:00 +31°C° 0 mm 2 mps 728 mmHg 49%
    16:00 +29°C° 0 mm 2 mps 728 mmHg 57%
    17:00 +28°C° 0 mm 2 mps 728 mmHg 62%
    18:00 +26°C° 0 mm 1 mps 728 mmHg 67%
    19:00 +25°C° 0 mm 1 mps 728 mmHg 72%
    20:00 +25°C° 0 mm 1 mps 728 mmHg 70%
    21:00 +25°C° 0 mm 1 mps 729 mmHg 68%
    22:00 +25°C° 0 mm 1 mps 729 mmHg 66%
    23:00 +24°C° 0.2 mm 1 mps 729 mmHg 68%

    29 Julio, Lunes

    Tiempo Temperatura Precipitaciones Viento Presión Humedad
    00:00 +24°C° 0.2 mm 1 mps 729 mmHg 70%
    01:00 +21°C° 0.2 mm 0 mps 729 mmHg 72%
    02:00 +23°C° 0.6 mm 1 mps 729 mmHg 76%
    03:00 +22°C° 0.6 mm 1 mps 729 mmHg 80%
    04:00 +20°C° 0.6 mm 2 mps 729 mmHg 84%
    05:00 +23°C° 0.1 mm 1 mps 729 mmHg 81%
    06:00 +24°C° 0.1 mm 1 mps 729 mmHg 77%
    07:00 +25°C° 0.1 mm 1 mps 729 mmHg 73%
    08:00 +26°C° 0.5 mm 2 mps 729 mmHg 69%
    09:00 +27°C° 0.5 mm 2 mps 729 mmHg 65%
    10:00 +29°C° 0.5 mm 2 mps 729 mmHg 60%
    11:00 +29°C° 0.7 mm 2 mps 729 mmHg 60%
    12:00 +29°C° 0.7 mm 2 mps 729 mmHg 61%
    13:00 +29°C° 0.7 mm 3 mps 729 mmHg 61%
    14:00 +29°C° 2 mm 2 mps 729 mmHg 64%
    15:00 +28°C° 2 mm 2 mps 729 mmHg 67%
    16:00 +27°C° 2 mm 2 mps 729 mmHg 70%
    17:00 +25°C° 2.5 mm 2 mps 729 mmHg 77%
    18:00 +24°C° 2.5 mm 2 mps 729 mmHg 85%
    19:00 +21°C° 2.5 mm 2 mps 729 mmHg 92%
    20:00 +21°C° 1.6 mm 2 mps 729 mmHg 92%
    21:00 +20°C° 1.6 mm 3 mps 730 mmHg 91%
    22:00 +20°C° 1.6 mm 3 mps 730 mmHg 91%
    23:00 +19°C° 0.1 mm 3 mps 730 mmHg 90%
    Mostrar más